Alabaster, AL

5:57 AM CDT on October 01, 2016 (GMT -0500)
Shelby County

Weather History for KEET - March, 2014

Change the Weather History Date:

Wednesday, March 12, 2014

  Actual Average Record
Temperature  
Mean Temperature 53 °F 55 °F  
Max Temperature 66 °F 66 °F 85 °F (2006)
Min Temperature 39 °F 43 °F 23 °F (1969)
Degree Days  
Heating Degree Days 12 11  
Month to date heating degree days 146 145  
Since 1 July heating degree days 2425 2274  
Cooling Degree Days 0 0  
Month to date cooling degree days 0 0  
Year to date cooling degree days 4 4  
Growing Degree Days 4 (Base 50)    
Moisture  
Dew Point 52 °F    
Average Humidity 75    
Maximum Humidity 100    
Minimum Humidity 49    
Precipitation  
Precipitation 0.02 in 0.15 in 3.88 in (1980)
Month to date precipitation 1.79 1.92  
Year to date precipitation 10.32 13.00  
Snow  
Snow 0.00 in - - ()
Month to date snowfall 0.0  
Since 1 July snowfall 1.3  
Snow Depth 0.00 in    
Sea Level Pressure  
Sea Level Pressure 29.76 in    
Wind  
Wind Speed 10 mph (WSW)    
Max Wind Speed 24 mph    
Max Gust Speed 34 mph    
Visibility 9 miles    
Events Rain    
T = Trace of Precipitation, MM = Missing Value Source: NWS Daily Summary

Daily Weather History Graph

Daily Weather History Graph

Search for Another Location

Airport or City:

Trip Planner

Search our weather history database for the weather conditions in past years. The results will help you decide how hot, cold, wet, or windy it might be!

Date:

Astronomy

Mar. 12, 2014 Rise Set
Actual Time 7:01 AM CDT 6:52 PM CDT
Civil Twilight 6:36 AM CDT 7:17 PM CDT
Nautical Twilight 6:08 AM CDT 7:46 PM CDT
Astronomical Twilight 5:39 AM CDT 8:15 PM CDT
Moon 3:31 PM CDT (3/12) 4:23 AM CDT (3/12)
Length of Visible Light 12h 40m
Length of Day
11h 51m
Waxing Gibbous, 85% of the Moon is Illuminated
Mar 12
Waxing Gibbous
Mar 16
Full
Mar 23
Last Quarter
Mar 30
New
Apr 7
First Quarter

Hourly Weather History & Observations

Time (CDT) Temp. Windchill Dew Point Humidity Pressure Visibility Wind Dir Wind Speed Gust Speed Precip Events Conditions
12:09 AM 62.1 °F - 62.1 °F 100% 29.72 in 3.0 mi South 4.6 mph - 0.02 in Rain Light Rain
12:45 AM 61.0 °F - 61.0 °F 100% 29.70 in 7.0 mi South 4.6 mph - 0.06 in Rain Light Rain
12:53 AM 61.0 °F - 61.0 °F 100% 29.69 in 7.0 mi South 4.6 mph - 0.06 in Rain Light Rain
1:11 AM 61.0 °F - 61.0 °F 100% 29.69 in 6.0 mi South 4.6 mph - 0.00 in Rain Light Rain
1:53 AM 61.0 °F - 61.0 °F 100% 29.65 in 6.0 mi SE 4.6 mph - 0.01 in   Overcast
2:16 AM 61.0 °F - 60.1 °F 97% 29.66 in 10.0 mi South 6.9 mph - N/A   Overcast
2:30 AM 61.0 °F - 60.1 °F 97% 29.66 in 10.0 mi SSW 4.6 mph - N/A   Overcast
2:42 AM 61.0 °F - 60.1 °F 97% 29.66 in 10.0 mi SSW 4.6 mph - N/A   Overcast
2:53 AM 60.1 °F - 60.1 °F 100% 29.65 in 10.0 mi SW 4.6 mph - N/A   Overcast
3:05 AM 60.1 °F - 60.1 °F 100% 29.67 in 10.0 mi SSW 5.8 mph - N/A   Overcast
3:30 AM 60.1 °F - 60.1 °F 100% 29.65 in 7.0 mi SSW 4.6 mph - N/A   Overcast
3:53 AM 60.1 °F - 60.1 °F 100% 29.64 in 4.0 mi SW 8.1 mph - N/A   Overcast
4:53 AM 60.1 °F - 60.1 °F 100% 29.65 in 9.0 mi SSW 5.8 mph - N/A   Overcast
5:15 AM 61.0 °F - 60.1 °F 97% 29.66 in 7.0 mi SW 4.6 mph - N/A   Overcast
5:53 AM 61.0 °F - 60.1 °F 97% 29.65 in 8.0 mi SW 4.6 mph - N/A   Overcast
6:44 AM 61.0 °F - 60.1 °F 97% 29.68 in 2.5 mi Variable 5.8 mph - 0.00 in Rain Light Rain
6:53 AM 61.0 °F - 60.1 °F 97% 29.66 in 4.0 mi Variable 5.8 mph - 0.01 in Rain Light Rain
7:08 AM 61.0 °F - 60.1 °F 97% 29.68 in 10.0 mi SW 4.6 mph - 0.00 in   Overcast
7:53 AM 62.1 °F - 60.1 °F 93% 29.67 in 10.0 mi SW 5.8 mph - 0.00 in   Overcast
8:14 AM 62.1 °F - 60.1 °F 93% 29.69 in 10.0 mi SW 5.8 mph - N/A   Overcast
8:53 AM 62.1 °F - 60.1 °F 93% 29.68 in 10.0 mi SW 5.8 mph 17.3 mph N/A   Overcast
9:21 AM 62.1 °F - 60.1 °F 93% 29.70 in 10.0 mi Variable 4.6 mph - N/A   Overcast
9:51 AM 62.6 °F - 60.8 °F 94% 29.70 in 7.0 mi Variable 4.6 mph - N/A   Overcast
9:53 AM 62.1 °F - 60.1 °F 93% 29.69 in 7.0 mi SW 5.8 mph - N/A   Overcast
10:26 AM 63.0 °F - 60.1 °F 90% 29.70 in 8.0 mi WSW 9.2 mph - 0.00 in   Overcast
10:53 AM 63.0 °F - 60.1 °F 90% 29.69 in 9.0 mi West 8.1 mph - 0.00 in   Overcast
11:26 AM 64.0 °F - 59.0 °F 84% 29.71 in 10.0 mi Variable 6.9 mph 16.1 mph N/A   Overcast
11:53 AM 64.9 °F - 57.9 °F 78% 29.70 in 10.0 mi WNW 11.5 mph 16.1 mph N/A   Overcast
12:06 PM 66.0 °F - 57.0 °F 73% 29.71 in 10.0 mi WNW 8.1 mph - N/A   Overcast
12:40 PM 61.0 °F - 52.0 °F 72% 29.74 in 10.0 mi NW 21.9 mph 33.4 mph N/A   Overcast
12:53 PM 60.1 °F - 50.0 °F 69% 29.75 in 10.0 mi WNW 19.6 mph 33.4 mph N/A   Overcast
1:53 PM 54.0 °F - 44.1 °F 69% 29.80 in 10.0 mi NW 18.4 mph 31.1 mph N/A   Overcast
2:34 PM 53.1 °F - 41.0 °F 64% 29.82 in 10.0 mi WNW 19.6 mph 31.1 mph N/A   Overcast
2:53 PM 53.1 °F - 39.9 °F 61% 29.83 in 10.0 mi NNW 16.1 mph 34.5 mph N/A   Overcast
3:53 PM 51.1 °F - 37.9 °F 61% 29.88 in 10.0 mi NW 20.7 mph 31.1 mph N/A   Overcast
4:53 PM 50.0 °F - 35.1 °F 57% 29.91 in 10.0 mi NNW 16.1 mph 28.8 mph N/A   Overcast
5:53 PM 48.0 °F - 35.1 °F 61% 29.95 in 10.0 mi NNW 17.3 mph 27.6 mph N/A   Overcast
6:53 PM 46.9 °F - 32.0 °F 56% 29.99 in 10.0 mi NW 13.8 mph 23.0 mph N/A   Overcast
7:53 PM 46.0 °F 40.6 °F 30.9 °F 56% 30.01 in 10.0 mi NW 11.5 mph 20.7 mph N/A   Mostly Cloudy
8:53 PM 45.0 °F 39.7 °F 28.0 °F 52% 30.05 in 10.0 mi NNW 10.4 mph 18.4 mph N/A   Mostly Cloudy
9:53 PM 43.0 °F 35.1 °F 26.1 °F 51% 30.08 in 10.0 mi NW 17.3 mph 24.2 mph N/A   Partly Cloudy
10:53 PM 42.1 °F 36.6 °F 25.0 °F 51% 30.09 in 10.0 mi NNW 9.2 mph - N/A   Clear
11:53 PM 41.0 °F 38.0 °F 27.0 °F 57% 30.11 in 10.0 mi NW 4.6 mph - N/A   Clear